Dewpoint
59 59 60 61 61 61 62 61 62 62 63 63 63 62 62 62 62 63 63 63 63 63 63 63 63 63 62 62 62 63 63 62 63 62 62 62 63 63 63 63 62 63 63 64 63 63 62 62 62 63 63 63 62 62 61 61 62 61 61 60 60 59 57 57 54 55 58 59 57 56 57 57 55 56 56 57 57 55 52 56 56 58 57 58 56
57 58 59 61 61 61 61 61 61 61 62 62 62 62 62 62 62 62 63 63 63 63 62 63 62 63 62 62 63 63 63 62 62 62 62 62 64 64 64 63 62 63 64 63 63 63 64 63 61 63 62 62 62 60 60 60 59 60 59 59 58 59 59 56 55 54 57 58 57 56 56 57 55 56 56 57 56 56 55 55 55 56 56 57 56
56 57 58 60 60 61 61 62 62 62 62 63 62 62 62 62 63 63 63 63 62 62 62 63 62 62 62 62 62 62 62 62 63 63 63 62 62 63 64 62 62 63 63 63 62 62 63 63 63 63 63 63 63 62 63 61 60 59 59 59 59 59 58 57 57 55 55 56 58 56 56 56 57 55 55 57 57 55 55 56 55 53 55 57 55
55 56 57 59 59 60 61 61 61 62 61 63 62 63 62 62 62 63 63 63 62 62 62 61 61 61 61 61 61 62 62 63 63 63 63 62 62 62 62 63 62 62 62 62 62 62 63 63 63 63 63 63 62 62 62 61 61 60 59 60 60 60 60 60 59 58 56 55 56 54 56 57 57 55 55 55 56 55 55 55 54 54 53 53 54
55 56 57 58 59 59 59 60 61 61 61 62 62 62 62 62 62 61 62 61 61 61 61 59 60 60 61 60 60 61 61 62 62 62 63 63 62 62 62 61 62 62 63 63 63 62 63 62 62 62 62 62 62 61 60 62 59 60 60 58 59 60 60 60 58 58 57 57 57 56 57 56 55 55 54 54 54 54 53 54 54 54 55 54 50
55 56 57 58 58 59 59 60 60 60 61 61 62 62 61 62 61 62 61 60 60 60 59 59 60 60 59 58 59 60 60 61 61 61 60 62 62 63 62 62 62 61 62 62 62 63 62 62 62 61 61 61 61 61 61 61 59 60 59 58 57 59 60 60 59 59 58 57 57 55 56 55 54 56 55 55 55 53 52 53 53 53 53 54 53
54 55 56 57 57 58 58 59 60 61 61 61 61 61 61 61 61 61 60 59 59 59 59 58 58 58 57 58 59 60 60 60 61 61 60 60 61 61 61 61 61 61 61 61 62 62 62 62 62 62 61 60 61 61 61 62 61 60 60 61 59 59 60 59 58 58 58 57 56 56 55 56 57 55 52 54 55 55 55 54 53 51 53 53 52
54 54 55 55 56 57 58 59 59 60 61 61 61 61 61 61 61 60 60 59 59 58 58 58 57 57 57 57 58 59 60 59 59 59 59 59 59 59 59 60 59 60 61 61 61 61 62 62 62 61 61 60 61 61 61 60 59 60 60 60 59 59 59 58 58 57 57 57 55 54 53 54 53 53 51 52 53 53 51 53 51 51 52 53 52
52 53 54 54 55 56 57 58 59 59 60 60 60 60 60 60 60 60 60 60 60 58 59 59 57 55 55 56 55 57 58 59 58 59 58 57 58 58 58 58 59 59 59 59 59 59 60 60 60 60 59 57 53 53 54 55 58 57 57 58 58 58 58 57 57 56 56 56 55 55 53 52 52 52 51 52 52 53 54 54 53 52 50 49 47
51 52 52 53 54 54 56 58 58 59 59 59 59 60 60 60 59 59 59 59 58 58 56 57 55 55 55 55 56 57 57 57 52 50 52 56 57 57 59 59 58 59 59 58 58 58 58 57 56 54 52 51 48 45 45 47 50 57 57 58 58 58 58 57 56 55 55 54 53 53 52 53 52 53 53 53 53 53 51 52 51 50 49 47 48
51 51 51 52 53 54 55 57 58 58 58 58 59 59 59 59 59 59 59 59 58 57 56 54 54 54 54 54 55 55 55 51 43 41 47 50 57 58 58 58 59 59 58 58 57 57 56 54 54 53 52 50 48 43 43 43 42 42 42 44 48 59 56 55 54 55 52 52 54 53 51 52 54 53 53 52 52 52 51 51 49 48 47 44 43
48 49 50 51 53 54 54 55 56 57 57 57 56 57 57 57 57 56 57 57 56 56 56 53 52 53 54 54 55 55 54 45 41 42 46 48 52 58 59 58 58 58 58 57 56 57 57 58 59 59 58 55 54 52 48 43 42 41 41 41 40 40 40 55 56 53 54 52 51 52 52 51 52 52 50 51 50 50 50 49 48 48 48 47 46
46 48 49 50 52 53 53 54 55 55 56 57 56 55 56 55 55 55 55 54 53 53 52 53 53 54 54 53 53 53 52 41 42 43 45 46 49 54 57 58 58 58 58 57 57 57 58 58 58 58 57 57 57 56 55 51 44 43 44 44 44 42 40 39 42 57 54 53 54 52 51 52 53 52 52 50 50 50 50 48 50 49 49 49 49
46 47 48 49 50 52 53 53 53 54 54 54 54 54 53 53 53 53 52 52 52 52 52 53 52 53 53 53 52 52 51 43 42 44 45 45 47 52 57 58 58 58 58 58 59 59 59 58 57 57 57 57 58 59 58 57 56 57 58 57 55 51 46 44 44 46 52 56 55 54 55 57 55 56 55 54 56 54 53 52 53 52 52 52 53
45 46 47 48 49 51 52 51 51 51 51 51 51 51 51 51 50 50 50 49 49 49 50 49 49 49 50 52 52 52 49 40 41 42 43 46 48 51 58 59 58 59 59 59 59 59 59 59 58 57 57 56 55 54 59 59 59 59 58 57 56 55 55 54 54 55 56 57 57 57 57 57 57 56 56 57 57 57 56 56 55 55 55 54 54
44 46 45 46 48 50 51 51 50 49 49 49 49 48 48 48 48 49 48 48 48 49 49 49 47 47 48 50 50 51 49 40 41 41 43 45 49 57 58 58 57 56 56 56 56 56 56 57 57 57 56 55 46 41 50 59 58 58 57 56 56 54 52 47 41 42 51 54 54 54 53 53 44 54 51 54 56 56 55 56 55 55 54 52 52
42 44 44 45 47 49 50 50 49 48 47 47 47 47 47 47 47 48 47 47 47 46 46 46 47 47 47 48 49 48 47 42 41 42 43 46 50 55 55 54 54 53 53 53 52 52 52 52 54 55 56 55 46 41 44 52 58 57 56 55 56 55 53 52 45 41 40 40 39 39 38 39 40 40 40 40 46 52 55 54 53 54 52 51 51
41 41 42 45 46 47 49 48 48 47 46 46 46 47 47 47 47 47 46 46 45 45 45 45 44 44 45 46 46 47 46 42 40 41 43 43 47 50 49 48 47 46 46 47 47 47 47 49 49 52 53 50 40 43 44 54 57 56 55 54 54 54 53 53 53 50 42 42 41 40 40 40 40 40 40 40 41 48 55 50 52 51 49 49 46
40 40 41 43 45 46 48 48 47 46 45 46 46 46 46 46 46 46 46 46 45 45 45 44 43 43 43 43 45 45 44 42 39 40 41 43 50 52 50 49 46 45 45 47 46 46 46 45 42 43 46 43 38 41 45 53 56 54 53 52 51 50 50 51 53 53 53 52 50 49 47 45 47 47 46 41 42 46 52 53 52 50 47 47 49
38 40 41 42 44 46 47 47 46 46 45 45 46 46 46 45 45 45 45 45 44 44 44 43 42 42 42 42 41 42 43 42 40 38 40 41 45 51 50 49 47 48 50 50 49 49 47 45 42 37 37 38 38 39 41 44 53 54 54 53 51 49 50 50 51 51 50 49 48 48 47 46 46 46 46 46 46 46 47 48 50 51 48 48 48
39 40 41 42 42 44 45 46 47 46 45 45 45 45 44 44 44 44 44 44 44 43 43 43 42 41 42 42 42 41 41 42 40 37 38 39 41 46 51 50 48 47 46 45 46 46 45 44 42 38 37 37 38 38 40 41 45 52 52 51 50 47 46 48 46 44 47 46 46 45 45 44 44 43 43 43 43 44 45 46 47 49 50 47 45
38 39 40 40 41 42 43 44 46 46 46 45 45 45 45 44 43 43 43 44 42 42 42 42 42 41 42 42 42 41 42 40 42 38 37 37 38 40 46 47 48 49 47 46 46 45 45 43 41 38 36 37 37 38 39 40 41 47 44 37 38 41 47 47 47 46 46 45 44 43 43 43 41 42 42 41 41 42 43 43 44 44 44 45 45
38 39 39 39 41 41 42 43 43 44 45 45 45 44 45 44 44 44 44 43 42 42 42 42 43 42 42 42 42 42 42 41 38 40 37 37 37 37 38 42 40 48 46 44 44 43 44 43 40 37 36 37 37 37 38 39 41 42 36 38 39 39 42 45 45 43 42 42 43 43 42 41 41 39 40 39 41 43 42 43 43 42 42 42 42
37 37 37 38 39 40 40 41 42 42 43 44 43 43 44 44 44 44 44 43 42 41 42 42 42 41 41 41 43 43 42 42 40 37 38 36 36 36 36 37 39 43 44 43 43 44 43 42 39 37 37 37 36 37 37 38 40 37 37 37 39 41 43 43 40 42 41 41 41 41 41 41 40 39 39 40 39 42 43 43 42 42 41 41 40
36 36 35 36 38 38 39 40 41 41 40 41 42 42 42 43 43 43 42 42 41 41 41 41 41 41 41 41 41 42 42 42 42 40 37 37 36 36 36 36 37 39 43 43 42 41 37 36 36 36 37 37 38 38 38 37 36 37 38 40 43 42 43 41 41 41 40 40 40 40 39 39 40 41 43 42 42 42 41 41 42 41 41 41 41
35 35 34 35 35 35 37 37 38 40 41 40 39 40 41 41 42 42 42 42 41 41 41 41 41 41 41 42 42 42 42 42 42 41 40 39 39 37 36 37 37 38 38 38 36 36 36 36 36 37 38 39 43 43 42 41 38 38 39 41 45 44 43 41 41 40 40 40 39 39 39 39 40 41 44 43 40 40 41 39 38 38 40 38 37
35 35 34 34 35 35 35 35 36 37 38 40 40 38 38 40 40 40 42 42 41 39 39 39 40 41 41 41 41 42 41 42 41 40 41 41 41 41 41 41 39 39 42 42 40 41 39 38 37 36 36 36 37 37 38 39 41 42 42 42 43 43 43 43 42 43 41 40 39 39 40 41 42 43 41 39 38 39 41 39 38 38 39 37 37
34 34 34 34 34 34 35 33 34 35 36 36 36 38 37 37 37 38 38 39 41 40 40 40 39 39 40 40 40 39 40 41 40 39 39 40 40 41 41 42 42 42 42 42 42 42 42 37 38 41 40 40 40 40 39 39 38 38 41 41 41 40 39 39 39 40 40 40 39 40 41 41 40 40 40 39 37 38 39 37 37 37 37 38 37
35 35 34 34 34 34 35 34 35 35 35 35 35 35 37 37 37 37 38 38 39 39 39 39 40 40 40 40 41 40 38 37 36 35 36 35 35 41 41 41 41 39 38 37 38 38 38 38 37 38 37 35 36 37 38 37 37 37 39 39 39 40 41 41 40 40 40 40 39 39 37 39 39 39 37 36 37 38 39 38 39 38 38 37 36
35 35 34 34 34 34 35 34 34 34 34 34 34 35 33 34 35 36 36 35 35 35 35 35 36 37 39 38 37 37 39 37 35 35 35 35 35 34 35 35 35 37 35 35 37 36 35 35 35 35 35 35 35 34 35 36 35 35 35 35 37 38 38 38 38 38 38 38 37 36 37 37 36 36 36 36 37 36 35 35 38 38 37 36 34
34 34 34 34 33 35 34 34 34 34 34 34 34 33 34 34 34 34 35 35 35 34 34 35 35 35 36 36 36 35 34 34 35 35 35 35 35 35 34 35 35 34 34 34 34 33 33 33 33 34 34 35 34 34 34 34 34 35 36 36 36 36 36 37 35 33 34 34 35 36 36 36 36 36 35 35 36 35 36 35 34 36 35 35 33
35 35 35 35 35 34 34 35 35 35 34 34 34 34 33 33 33 33 34 34 34 34 34 34 35 35 35 35 36 36 35 35 35 35 35 35 34 34 34 34 34 34 34 34 33 33 33 33 33 34 34 34 34 33 35 35 35 35 35 34 35 35 35 35 35 36 35 34 33 33 34 35 35 35 35 34 33 34 33 33 33 32 32 31 32
37 37 36 36 36 35 34 34 35 35 35 34 35 34 33 32 32 33 33 34 34 34 34 34 34 34 35 35 35 34 34 34 35 35 35 34 34 34 34 34 34 34 34 33 33 33 34 34 35 35 35 34 35 35 35 35 35 35 35 35 34 35 35 34 34 34 33 34 34 33 33 33 33 32 32 32 31 31 32 32 32 33 31 30 29
36 36 36 38 36 36 36 36 34 34 34 34 34 33 33 34 34 34 33 34 35 34 34 34 34 34 34 34 34 34 34 34 34 34 34 34 34 34 34 34 34 34 34 35 34 34 35 36 35 35 35 35 35 34 34 34 34 34 34 35 35 35 35 36 35 34 33 34 34 33 33 33 32 31 31 32 31 31 30 29 31 30 30 30 30
34 32 32 33 34 34 35 35 35 35 34 35 33 33 34 34 33 33 33 33 34 34 34 35 34 34 34 34 34 34 34 34 34 34 34 34 34 34 34 35 33 34 36 37 36 35 35 35 35 35 35 35 34 34 35 36 35 35 35 35 35 35 34 34 34 35 35 35 34 33 33 32 33 31 30 29 28 28 28 28 29 31 30 29 30
34 32 35 36 35 35 34 34 35 35 35 34 35 33 33 33 32 32 33 33 33 33 33 34 34 34 34 34 34 34 34 34 34 33 33 33 33 34 33 33 33 34 34 35 35 34 34 34 35 35 35 35 36 35 35 35 35 35 35 35 34 34 34 34 33 34 34 34 33 32 33 32 31 30 30 30 31 29 29 28 28 28 30 29 29
32 32 33 33 34 35 35 36 35 35 33 33 32 31 31 31 31 31 32 32 32 33 33 33 34 35 34 34 35 34 33 33 33 33 33 33 33 34 35 34 34 35 34 34 35 35 35 35 35 35 35 35 35 35 35 36 36 35 34 35 35 34 34 34 33 33 33 32 32 33 32 31 30 30 28 27 26 25 27 27 27 27 27 27 27
35 33 32 35 35 36 35 34 33 33 34 33 32 32 31 31 31 30 31 31 31 32 33 33 33 33 32 33 35 35 33 33 33 33 33 33 32 34 34 34 34 34 33 34 35 35 35 35 36 35 35 35 35 35 35 35 35 35 34 34 33 33 33 33 33 33 32 31 31 31 31 30 29 28 27 26 25 24 25 26 25 25 26 26 25
33 30 30 30 30 32 31 31 32 32 32 32 31 31 31 30 30 29 30 31 31 32 32 33 34 33 33 34 33 35 33 32 32 32 32 33 33 33 34 34 33 33 33 34 34 34 35 35 35 35 35 35 35 35 35 35 35 35 34 33 33 33 32 31 31 31 31 30 30 30 30 29 29 28 27 25 25 25 26 26 26 25 24 23 22
32 31 30 29 30 32 32 31 31 30 30 32 30 32 30 30 31 30 30 30 31 32 32 32 32 33 33 34 33 33 31 32 32 32 32 32 33 33 33 33 33 34 34 34 33 34 35 34 35 36 35 35 35 35 34 34 34 33 33 32 32 31 31 31 31 30 30 30 30 29 29 29 29 28 27 26 25 25 25 24 24 24 23 23 23
31 32 30 29 29 30 30 30 30 31 31 31 31 31 31 31 31 30 30 30 31 32 32 33 33 34 33 32 31 32 32 32 32 32 32 32 32 32 32 33 33 33 33 33 33 33 34 35 34 34 34 34 34 33 34 34 33 33 32 31 31 30 30 30 30 30 29 29 29 29 29 29 29 28 28 27 28 26 24 24 24 23 23 24 23
31 30 29 30 32 30 29 30 31 31 32 32 31 30 30 31 31 30 29 30 30 31 31 32 33 33 32 31 32 32 33 33 32 32 32 32 32 31 31 31 31 32 32 33 34 33 33 33 33 33 32 32 32 32 32 32 32 31 31 31 30 30 29 29 29 29 29 28 28 28 28 28 28 28 28 29 25 24 24 24 24 24 23 23 23
34 31 30 30 30 30 30 31 32 33 32 33 33 29 30 31 32 30 30 30 30 30 30 31 32 32 31 30 31 31 32 32 31 32 31 32 31 31 31 31 31 31 32 32 32 33 33 32 32 32 31 31 30 29 30 30 30 30 30 30 29 29 29 28 28 28 27 27 26 28 28 27 27 26 27 27 26 25 25 25 25 24 24 24 24
34 34 31 30 30 30 31 31 33 32 32 31 31 31 30 30 31 32 30 30 30 29 30 31 31 31 32 31 31 31 30 31 32 31 31 31 31 30 31 31 30 30 31 31 31 31 31 31 31 31 31 31 31 31 29 28 28 29 30 29 29 28 28 27 27 28 27 27 27 27 27 27 26 25 26 26 26 25 25 26 25 24 24 24 24
36 34 34 34 34 35 34 34 33 33 32 33 34 35 32 31 30 30 30 29 29 30 29 30 31 31 31 31 31 30 30 30 29 30 31 30 30 30 30 29 29 29 29 30 30 30 29 28 29 29 29 29 28 29 28 29 29 29 27 28 29 28 27 28 28 28 28 29 27 26 26 26 26 25 25 25 25 25 24 25 25 25 25 24 24
35 35 35 34 34 33 34 33 33 34 34 34 34 34 34 34 32 31 30 30 30 29 29 29 29 30 30 30 31 30 30 30 29 30 30 30 29 29 29 29 29 29 28 28 29 29 28 28 26 27 28 28 28 28 26 26 27 27 28 28 28 27 27 28 27 27 27 28 28 27 26 25 25 25 26 25 24 24 26 26 25 24 24 25 25
37 36 35 34 34 34 34 35 32 33 34 33 34 33 33 35 34 32 31 31 31 30 31 30 31 29 30 31 30 30 30 29 29 28 28 29 30 30 29 29 28 29 28 29 30 28 29 27 27 26 26 25 26 25 22 22 24 25 24 24 27 25 25 24 24 28 26 26 26 27 27 26 25 25 26 25 24 24 25 24 24 25 24 24 23
34 34 34 34 34 33 33 34 34 33 33 33 33 33 32 33 33 33 33 33 32 31 31 31 31 31 30 31 31 30 30 29 30 29 29 29 28 28 29 29 28 28 27 29 28 27 27 28 27 26 23 22 20 16 18 15 16 18 19 22 24 23 22 20 24 26 26 26 27 28 28 26 24 24 24 26 26 24 23 23 23 22 22 22 22
33 33 33 33 34 33 33 34 33 33 34 34 32 32 32 32 32 32 33 33 33 32 32 32 31 32 31 31 31 31 31 30 30 30 30 28 29 30 28 28 28 27 26 24 25 26 28 27 25 23 22 18 18 15 19 18 15 16 20 19 21 15 17 18 21 24 23 26 27 29 28 27 26 25 26 26 25 24 23 24 23 23 23 23 23
34 34 34 33 33 34 33 34 33 34 33 33 32 32 31 32 32 31 31 32 32 32 32 32 31 31 32 32 32 31 32 30 30 30 31 30 29 29 28 29 29 28 27 26 26 25 25 26 27 24 22 19 18 16 15 16 15 14 18 20 16 16 17 17 18 18 23 25 28 26 26 25 24 25 24 25 25 25 25 24 24 24 24 24 24
35 35 34 34 34 33 32 32 33 33 33 33 32 31 31 31 31 30 29 30 30 30 31 32 32 32 32 31 32 33 31 31 31 31 31 32 30 30 30 29 28 28 28 27 26 25 25 25 23 22 21 18 16 16 17 19 20 20 16 14 15 16 16 17 21 19 19 21 27 25 24 24 24 24 24 23 24 25 24 25 25 25 23 22 22